Time,TemperatureF,DewpointF,PressureIn,WindDirection,WindDirectionDegrees,WindSpeedMPH,WindSpeedGustMPH,Humidity,HourlyPrecipIn,Conditions,Clouds,dailyrainin,SoftwareType,DateUTC
2013-02-09 00:01:00,30.0,23.0,30.39,SSE,149,0.0,0.0,75,0.00,,,0.00,,2013-02-09 06:01:00,
2013-02-09 00:11:00,30.0,23.0,30.39,SSE,149,0.0,0.0,75,0.00,,,0.00,,2013-02-09 06:11:00,
2013-02-09 00:21:00,31.0,24.0,30.40,SE,126,0.0,0.0,75,0.00,,,0.00,,2013-02-09 06:21:00,
2013-02-09 00:31:00,31.0,24.0,30.39,ESE,123,0.0,0.0,75,0.00,,,0.00,,2013-02-09 06:31:00,
2013-02-09 00:42:00,31.0,24.0,30.39,ESE,123,0.0,0.0,75,0.00,,,0.00,,2013-02-09 06:42:00,
2013-02-09 00:52:00,31.0,24.0,30.38,SE,133,0.0,0.0,75,0.00,,,0.00,,2013-02-09 06:52:00,
2013-02-09 01:01:00,31.0,24.0,30.38,SE,134,0.0,0.0,75,0.00,,,0.00,,2013-02-09 07:01:00,
2013-02-09 01:11:00,31.0,24.0,30.38,SE,134,0.0,0.0,75,0.00,,,0.00,,2013-02-09 07:11:00,
2013-02-09 01:21:00,31.0,24.0,30.37,ESE,122,0.0,0.0,76,0.00,,,0.00,,2013-02-09 07:21:00,
2013-02-09 01:31:00,31.0,24.0,30.38,South,172,0.0,0.0,76,0.00,,,0.00,,2013-02-09 07:31:00,
2013-02-09 01:42:00,31.0,24.0,30.38,South,172,0.0,0.0,76,0.00,,,0.00,,2013-02-09 07:42:00,
2013-02-09 01:52:00,31.0,24.0,30.39,SSE,163,0.0,0.0,76,0.00,,,0.00,,2013-02-09 07:52:00,
2013-02-09 02:01:00,31.0,24.0,30.39,SSE,156,0.0,0.0,76,0.00,,,0.00,,2013-02-09 08:01:00,
2013-02-09 02:11:00,31.0,24.0,30.39,SSE,156,0.0,0.0,76,0.00,,,0.00,,2013-02-09 08:11:00,
2013-02-09 02:21:00,31.0,24.0,30.38,SSE,153,0.0,0.0,75,0.00,,,0.00,,2013-02-09 08:21:00,
2013-02-09 02:31:00,31.0,24.0,30.38,ESE,122,0.0,0.0,75,0.00,,,0.00,,2013-02-09 08:31:00,
2013-02-09 02:42:00,31.0,24.0,30.38,ESE,122,0.0,0.0,75,0.00,,,0.00,,2013-02-09 08:42:00,
2013-02-09 02:52:00,31.0,24.0,30.38,SSE,151,0.0,0.0,75,0.00,,,0.00,,2013-02-09 08:52:00,
2013-02-09 03:03:00,31.0,24.0,30.38,SE,136,0.0,0.0,75,0.00,,,0.00,,2013-02-09 09:03:00,
2013-02-09 03:11:00,31.0,24.0,30.38,SE,136,0.0,0.0,75,0.00,,,0.00,,2013-02-09 09:11:00,
2013-02-09 03:21:00,31.0,24.0,30.37,SE,125,0.0,0.0,75,0.00,,,0.00,,2013-02-09 09:21:00,
2013-02-09 03:31:00,31.0,24.0,30.38,SE,127,0.0,0.0,75,0.00,,,0.00,,2013-02-09 09:31:00,
2013-02-09 03:41:00,31.0,24.0,30.38,SE,127,0.0,0.0,75,0.00,,,0.00,,2013-02-09 09:41:00,
2013-02-09 03:52:00,31.0,24.0,30.38,South,170,0.0,0.0,75,0.00,,,0.00,,2013-02-09 09:52:00,
2013-02-09 04:01:00,31.0,24.0,30.38,SSE,161,0.0,0.0,76,0.00,,,0.00,,2013-02-09 10:01:00,
2013-02-09 04:11:00,31.0,24.0,30.38,SSE,161,0.0,0.0,76,0.00,,,0.00,,2013-02-09 10:11:00,
2013-02-09 04:21:00,31.0,24.0,30.38,SE,134,0.0,0.0,74,0.00,,,0.00,,2013-02-09 10:21:00,
2013-02-09 04:31:00,31.0,24.0,30.38,SSE,165,0.0,0.0,74,0.00,,,0.00,,2013-02-09 10:31:00,
2013-02-09 04:41:00,31.0,24.0,30.38,SSE,165,0.0,0.0,74,0.00,,,0.00,,2013-02-09 10:41:00,
2013-02-09 04:52:00,31.0,23.0,30.37,SE,131,0.0,0.0,73,0.00,,,0.00,,2013-02-09 10:52:00,
2013-02-09 05:01:00,31.0,23.0,30.37,SE,132,0.0,0.0,73,0.00,,,0.00,,2013-02-09 11:01:00,
2013-02-09 05:11:00,31.0,23.0,30.37,SE,132,0.0,0.0,73,0.00,,,0.00,,2013-02-09 11:11:00,
2013-02-09 05:22:00,31.0,24.0,30.37,SE,146,0.0,0.0,74,0.00,,,0.00,,2013-02-09 11:22:00,
2013-02-09 05:31:00,31.0,24.0,30.37,SSE,157,0.0,0.0,74,0.00,,,0.00,,2013-02-09 11:31:00,
2013-02-09 05:41:00,31.0,24.0,30.37,SSE,157,0.0,0.0,74,0.00,,,0.00,,2013-02-09 11:41:00,
2013-02-09 05:52:00,31.0,24.0,30.37,SE,144,0.0,0.0,75,0.00,,,0.00,,2013-02-09 11:52:00,
2013-02-09 06:02:00,31.0,24.0,30.37,SSE,150,0.0,0.0,74,0.00,,,0.00,,2013-02-09 12:02:00,
2013-02-09 06:11:00,31.0,24.0,30.37,SSE,150,0.0,0.0,74,0.00,,,0.00,,2013-02-09 12:11:00,
2013-02-09 06:21:00,31.0,24.0,30.36,SE,143,0.0,0.0,75,0.00,,,0.00,,2013-02-09 12:21:00,
2013-02-09 06:32:00,31.0,23.0,30.36,SSE,149,0.0,0.0,73,0.00,,,0.00,,2013-02-09 12:32:00,
2013-02-09 06:42:00,31.0,23.0,30.36,SSE,149,0.0,0.0,73,0.00,,,0.00,,2013-02-09 12:42:00,
2013-02-09 06:52:00,31.0,23.0,30.36,SE,135,0.0,0.0,73,0.00,,,0.00,,2013-02-09 12:52:00,
2013-02-09 07:02:00,31.0,24.0,30.36,SE,140,0.0,0.0,74,0.00,,,0.00,,2013-02-09 13:02:00,
2013-02-09 07:11:00,31.0,24.0,30.36,SE,140,0.0,0.0,74,0.00,,,0.00,,2013-02-09 13:11:00,
2013-02-09 07:21:00,31.0,24.0,30.35,SE,126,0.0,0.0,74,0.00,,,0.00,,2013-02-09 13:21:00,
2013-02-09 07:32:00,31.0,23.0,30.36,SE,126,0.0,0.0,73,0.00,,,0.00,,2013-02-09 13:32:00,
2013-02-09 07:42:00,31.0,23.0,30.36,SE,126,0.0,0.0,73,0.00,,,0.00,,2013-02-09 13:42:00,
2013-02-09 07:52:00,32.0,25.0,30.37,SE,137,0.0,0.0,74,0.00,,,0.00,,2013-02-09 13:52:00,
2013-02-09 08:01:00,32.0,25.0,30.37,SSE,154,0.0,0.0,74,0.00,,,0.00,,2013-02-09 14:01:00,
2013-02-09 08:11:00,32.0,25.0,30.37,SSE,154,0.0,0.0,74,0.00,,,0.00,,2013-02-09 14:11:00,
2013-02-09 08:21:00,32.0,24.0,30.37,SE,132,0.0,0.0,73,0.00,,,0.00,,2013-02-09 14:21:00,
2013-02-09 08:31:00,32.0,24.0,30.37,SE,142,0.0,0.0,73,0.00,,,0.00,,2013-02-09 14:31:00,
2013-02-09 08:41:00,32.0,24.0,30.37,SE,142,0.0,0.0,73,0.00,,,0.00,,2013-02-09 14:41:00,
2013-02-09 08:52:00,32.0,25.0,30.36,SSE,152,0.0,0.0,74,0.00,,,0.00,,2013-02-09 14:52:00,
2013-02-09 09:01:00,32.0,25.0,30.36,SE,134,0.0,0.0,74,0.00,,,0.00,,2013-02-09 15:01:00,
2013-02-09 09:11:00,32.0,25.0,30.36,SE,134,0.0,0.0,74,0.00,,,0.00,,2013-02-09 15:11:00,
2013-02-09 09:21:00,32.0,24.0,30.36,SSE,155,0.0,0.0,72,0.00,,,0.00,,2013-02-09 15:21:00,
2013-02-09 09:32:00,32.0,24.0,30.37,SSE,160,0.0,0.0,72,0.00,,,0.00,,2013-02-09 15:32:00,
2013-02-09 09:42:00,32.0,24.0,30.37,SSE,160,0.0,0.0,72,0.00,,,0.00,,2013-02-09 15:42:00,
2013-02-09 09:52:00,32.0,24.0,30.37,SSE,163,0.0,0.0,72,0.00,,,0.00,,2013-02-09 15:52:00,
2013-02-09 10:01:00,33.0,25.0,30.37,SSE,148,0.0,0.0,73,0.00,,,0.00,,2013-02-09 16:01:00,
2013-02-09 10:11:00,33.0,25.0,30.37,SSE,148,0.0,0.0,73,0.00,,,0.00,,2013-02-09 16:11:00,
2013-02-09 10:22:00,33.0,25.0,30.35,SE,141,0.0,0.0,72,0.00,,,0.00,,2013-02-09 16:22:00,
2013-02-09 10:31:00,33.0,25.0,30.35,SSE,148,0.0,0.0,73,0.00,,,0.00,,2013-02-09 16:31:00,
2013-02-09 10:41:00,33.0,25.0,30.35,SSE,148,0.0,0.0,73,0.00,,,0.00,,2013-02-09 16:41:00,
2013-02-09 10:52:00,34.0,26.0,30.35,SE,142,0.0,0.0,72,0.00,,,0.00,,2013-02-09 16:52:00,
2013-02-09 11:01:00,34.0,26.0,30.34,SE,134,0.0,0.0,72,0.00,,,0.00,,2013-02-09 17:01:00,
2013-02-09 11:11:00,34.0,26.0,30.34,SE,134,0.0,0.0,72,0.00,,,0.00,,2013-02-09 17:11:00,
2013-02-09 11:21:00,34.0,26.0,30.33,SSE,152,0.0,0.0,71,0.00,,,0.00,,2013-02-09 17:21:00,
2013-02-09 11:32:00,34.0,26.0,30.33,SSE,157,0.0,0.0,72,0.00,,,0.00,,2013-02-09 17:32:00,
2013-02-09 11:41:00,34.0,26.0,30.33,SSE,157,0.0,0.0,72,0.00,,,0.00,,2013-02-09 17:41:00,
2013-02-09 11:52:00,34.0,26.0,30.33,SE,140,0.0,0.0,71,0.00,,,0.00,,2013-02-09 17:52:00,
2013-02-09 12:02:00,34.0,25.0,30.33,SE,140,0.0,0.0,70,0.00,,,0.00,,2013-02-09 18:02:00,
2013-02-09 12:12:00,34.0,25.0,30.33,SE,140,0.0,0.0,70,0.00,,,0.00,,2013-02-09 18:12:00,
2013-02-09 12:23:00,35.0,26.0,30.32,SSE,153,0.0,0.0,70,0.00,,,0.00,,2013-02-09 18:23:00,
2013-02-09 12:32:00,35.0,27.0,30.31,SSE,161,0.0,0.0,72,0.00,,,0.00,,2013-02-09 18:32:00,
2013-02-09 12:42:00,35.0,27.0,30.31,SSE,161,0.0,0.0,72,0.00,,,0.00,,2013-02-09 18:42:00,
2013-02-09 12:52:00,35.0,27.0,30.30,SSE,165,0.0,0.0,71,0.00,,,0.00,,2013-02-09 18:52:00,
2013-02-09 13:01:00,35.0,27.0,30.29,SSE,154,0.0,0.0,72,0.00,,,0.00,,2013-02-09 19:01:00,
2013-02-09 13:11:00,35.0,27.0,30.29,SSE,154,0.0,0.0,72,0.00,,,0.00,,2013-02-09 19:11:00,
2013-02-09 13:22:00,35.0,26.0,30.29,SE,136,0.0,0.0,70,0.00,,,0.00,,2013-02-09 19:22:00,
2013-02-09 13:31:00,36.0,27.0,30.28,SSE,153,0.0,0.0,70,0.00,,,0.00,,2013-02-09 19:31:00,
2013-02-09 13:42:00,36.0,27.0,30.28,SSE,153,0.0,0.0,70,0.00,,,0.00,,2013-02-09 19:42:00,
2013-02-09 13:52:00,36.0,28.0,30.26,SE,136,0.0,0.0,71,0.00,,,0.00,,2013-02-09 19:52:00,
2013-02-09 14:01:00,37.0,28.0,30.26,SSE,156,0.0,0.0,71,0.00,,,0.00,,2013-02-09 20:01:00,
2013-02-09 14:11:00,37.0,28.0,30.26,SSE,156,0.0,0.0,71,0.00,,,0.00,,2013-02-09 20:11:00,
2013-02-09 14:21:00,37.0,27.0,30.24,SSE,156,0.0,0.0,68,0.00,,,0.00,,2013-02-09 20:21:00,
2013-02-09 14:31:00,38.0,30.0,30.23,SE,129,0.0,0.0,72,0.00,,,0.00,,2013-02-09 20:31:00,
2013-02-09 14:42:00,38.0,30.0,30.23,SE,129,0.0,0.0,72,0.00,,,0.00,,2013-02-09 20:42:00,
2013-02-09 14:52:00,37.0,28.0,30.22,SE,130,0.0,0.0,70,0.00,,,0.00,,2013-02-09 20:52:00,
2013-02-09 15:02:00,38.0,29.0,30.22,SSE,153,0.0,0.0,70,0.00,,,0.00,,2013-02-09 21:02:00,
2013-02-09 15:11:00,38.0,29.0,30.22,SSE,153,0.0,0.0,70,0.00,,,0.00,,2013-02-09 21:11:00,
2013-02-09 15:21:00,39.0,29.0,30.21,SE,142,0.0,0.0,68,0.00,,,0.00,,2013-02-09 21:21:00,
2013-02-09 15:31:00,38.0,28.0,30.21,SSE,157,0.0,0.0,68,0.00,,,0.00,,2013-02-09 21:31:00,
2013-02-09 15:41:00,38.0,28.0,30.21,SSE,157,0.0,0.0,68,0.00,,,0.00,,2013-02-09 21:41:00,
2013-02-09 15:52:00,38.0,29.0,30.20,SE,135,0.0,0.0,69,0.00,,,0.00,,2013-02-09 21:52:00,
2013-02-09 16:01:00,39.0,30.0,30.19,SSE,155,0.0,0.0,70,0.00,,,0.00,,2013-02-09 22:01:00,
2013-02-09 16:11:00,39.0,30.0,30.19,SSE,155,0.0,0.0,70,0.00,,,0.00,,2013-02-09 22:11:00,
2013-02-09 16:21:00,38.0,29.0,30.18,SE,131,0.0,0.0,70,0.00,,,0.00,,2013-02-09 22:21:00,
2013-02-09 16:32:00,37.0,29.0,30.17,SE,132,0.0,0.0,72,0.00,,,0.00,,2013-02-09 22:32:00,
2013-02-09 16:42:00,37.0,29.0,30.17,SE,132,0.0,0.0,72,0.00,,,0.00,,2013-02-09 22:42:00,
2013-02-09 16:52:00,37.0,29.0,30.17,ESE,113,0.0,0.0,74,0.00,,,0.00,,2013-02-09 22:52:00,
2013-02-09 17:01:00,36.0,29.0,30.16,SE,130,0.0,0.0,76,0.00,,,0.00,,2013-02-09 23:01:00,
2013-02-09 17:11:00,36.0,29.0,30.16,SE,130,0.0,0.0,76,0.00,,,0.00,,2013-02-09 23:11:00,
2013-02-09 17:21:00,37.0,30.0,30.16,SE,130,0.0,0.0,77,0.00,,,0.00,,2013-02-09 23:21:00,
2013-02-09 17:31:00,37.0,30.0,30.15,SE,128,0.0,0.0,77,0.00,,,0.00,,2013-02-09 23:31:00,
2013-02-09 17:42:00,37.0,30.0,30.15,SE,128,0.0,0.0,77,0.00,,,0.00,,2013-02-09 23:42:00,
2013-02-09 17:52:00,36.0,30.0,30.14,ESE,109,0.0,0.0,78,0.00,,,0.00,,2013-02-09 23:52:00,
2013-02-09 18:02:00,36.0,30.0,30.13,ESE,111,0.0,0.0,79,0.00,,,0.00,,2013-02-10 00:02:00,
2013-02-09 18:11:00,36.0,30.0,30.13,ESE,111,0.0,0.0,79,0.00,,,0.00,,2013-02-10 00:11:00,
2013-02-09 18:21:00,35.0,29.0,30.14,ESE,123,0.0,0.0,80,0.00,,,0.00,,2013-02-10 00:21:00,
2013-02-09 18:32:00,36.0,30.0,30.13,SE,130,0.0,0.0,80,0.00,,,0.00,,2013-02-10 00:32:00,
2013-02-09 18:42:00,36.0,30.0,30.13,SE,130,0.0,0.0,80,0.00,,,0.00,,2013-02-10 00:42:00,
2013-02-09 18:52:00,36.0,30.0,30.13,SE,126,0.0,0.0,80,0.00,,,0.00,,2013-02-10 00:52:00,
2013-02-09 19:01:00,36.0,30.0,30.13,SE,129,0.0,0.0,80,0.00,,,0.00,,2013-02-10 01:01:00,
2013-02-09 19:12:00,36.0,30.0,30.13,SE,129,0.0,0.0,80,0.00,,,0.00,,2013-02-10 01:12:00,
2013-02-09 19:21:00,36.0,31.0,30.12,SE,132,0.0,0.0,81,0.00,,,0.00,,2013-02-10 01:21:00,
2013-02-09 19:31:00,36.0,31.0,30.12,SE,130,0.0,0.0,81,0.00,,,0.00,,2013-02-10 01:31:00,
2013-02-09 19:42:00,36.0,31.0,30.12,SE,130,0.0,0.0,81,0.00,,,0.00,,2013-02-10 01:42:00,
2013-02-09 19:52:00,36.0,30.0,30.12,SE,135,0.0,0.0,80,0.00,,,0.00,,2013-02-10 01:52:00,
2013-02-09 20:01:00,36.0,30.0,30.11,SE,137,0.0,0.0,79,0.00,,,0.00,,2013-02-10 02:01:00,
2013-02-09 20:11:00,36.0,30.0,30.11,SE,137,0.0,0.0,79,0.00,,,0.00,,2013-02-10 02:11:00,
2013-02-09 20:22:00,36.0,30.0,30.11,SE,136,0.0,0.0,79,0.00,,,0.00,,2013-02-10 02:22:00,
2013-02-09 20:32:00,36.0,30.0,30.11,SE,136,0.0,0.0,80,0.00,,,0.00,,2013-02-10 02:32:00,
2013-02-09 20:42:00,36.0,30.0,30.11,SE,136,0.0,0.0,80,0.00,,,0.00,,2013-02-10 02:42:00,
2013-02-09 20:52:00,36.0,30.0,30.11,SE,135,0.0,0.0,80,0.00,,,0.00,,2013-02-10 02:52:00,
2013-02-09 21:01:00,36.0,30.0,30.10,SE,136,0.0,0.0,79,0.00,,,0.00,,2013-02-10 03:01:00,
2013-02-09 21:11:00,36.0,30.0,30.10,SE,136,0.0,0.0,79,0.00,,,0.00,,2013-02-10 03:11:00,
2013-02-09 21:21:00,36.0,30.0,30.09,SSE,147,0.0,0.0,79,0.00,,,0.00,,2013-02-10 03:21:00,
2013-02-09 21:32:00,37.0,31.0,30.09,SE,136,0.0,0.0,78,0.00,,,0.00,,2013-02-10 03:32:00,
2013-02-09 21:41:00,37.0,31.0,30.09,SE,136,0.0,0.0,78,0.00,,,0.00,,2013-02-10 03:41:00,
2013-02-09 21:52:00,37.0,31.0,30.09,SE,144,0.0,0.0,78,0.00,,,0.00,,2013-02-10 03:52:00,
2013-02-09 22:01:00,37.0,31.0,30.08,SE,134,0.0,0.0,78,0.00,,,0.00,,2013-02-10 04:01:00,
2013-02-09 22:11:00,37.0,31.0,30.08,SE,134,0.0,0.0,78,0.00,,,0.00,,2013-02-10 04:11:00,
2013-02-09 22:21:00,37.0,30.0,30.06,SE,136,0.0,0.0,77,0.00,,,0.00,,2013-02-10 04:21:00,
2013-02-09 22:32:00,37.0,30.0,30.06,SE,134,0.0,0.0,77,0.00,,,0.00,,2013-02-10 04:32:00,
2013-02-09 22:42:00,37.0,30.0,30.06,SE,134,0.0,0.0,77,0.00,,,0.00,,2013-02-10 04:42:00,
2013-02-09 22:52:00,37.0,30.0,30.05,SE,140,0.0,0.0,77,0.00,,,0.00,,2013-02-10 04:52:00,
2013-02-09 23:01:00,37.0,30.0,30.05,SE,139,0.0,0.0,77,0.00,,,0.00,,2013-02-10 05:01:00,
2013-02-09 23:11:00,37.0,30.0,30.05,SE,139,0.0,0.0,77,0.00,,,0.00,,2013-02-10 05:11:00,
2013-02-09 23:22:00,37.0,30.0,30.05,SSE,147,0.0,0.0,77,0.00,,,0.00,,2013-02-10 05:22:00,
2013-02-09 23:31:00,37.0,30.0,30.04,SE,134,0.0,0.0,77,0.00,,,0.00,,2013-02-10 05:31:00,
2013-02-09 23:41:00,37.0,30.0,30.04,SE,134,0.0,0.0,77,0.00,,,0.00,,2013-02-10 05:41:00,
2013-02-09 23:52:00,37.0,30.0,30.05,SE,133,0.0,0.0,77,0.00,,,0.00,,2013-02-10 05:52:00,